CW5363 Weather Reports


time (UTC)temp
F
wind
direction
speed
knots
gust
knots
rain 1hr
in
rain 24hr
in
rain mn
in
humidity
%
barometer
mb
20260509024327 54 148 0.0 0.0 0.00 0.00 0.00 88 1014.6
20260509023827 54 148 0.0 0.0 0.00 0.00 0.00 88 1014.6
20260509023327 54 148 0.0 0.0 0.00 0.00 0.00 88 1014.5
20260509022832 54 148 0.0 0.0 0.00 0.00 0.00 88 1014.5
20260509022334 54 148 0.0 0.0 0.00 0.00 0.00 88 1014.5
20260509021833 54 148 0.0 0.0 0.00 0.00 0.00 88 1014.4
20260509021325 54 148 0.0 0.0 0.00 0.00 0.00 88 1014.4
20260509020846 54 148 0.0 0.0 0.00 0.00 0.00 88 1014.4
20260509020325 54 148 0.0 0.0 0.00 0.00 0.00 88 1014.7
20260509015838 54 148 0.0 0.0 0.00 0.00 0.00 87 1014.7
20260509015339 54 148 0.0 0.0 0.00 0.00 0.00 87 1014.7
20260509014838 54 148 0.0 0.0 0.00 0.00 0.00 87 1014.5
20260509014341 54 148 0.0 0.0 0.00 0.00 0.00 87 1014.5
20260509013844 54 148 0.0 0.0 0.00 0.00 0.00 86 1014.5
20260509013327 54 148 0.0 0.0 0.00 0.00 0.00 87 1014.1
20260509012833 54 148 0.0 0.0 0.00 0.00 0.00 86 1014.1
20260509012336 54 148 0.0 0.0 0.00 0.00 0.00 87 1014.1
20260509011855 54 148 0.0 0.0 0.00 0.00 0.00 87 1014.2
20260509011338 55 148 0.0 0.0 0.00 0.00 0.00 86 1014.2
20260509010843 55 148 0.0 0.0 0.00 0.00 0.00 85 1014.2
20260509010342 55 148 0.0 0.0 0.00 0.00 0.00 85 1014.1
20260509005828 55 148 0.0 0.0 0.00 0.00 0.00 84 1014.1
20260509005328 56 148 0.0 0.0 0.00 0.00 0.00 83 1014.1
20260509004831 56 148 0.0 0.0 0.00 0.00 0.00 83 1014.1
20260509004342 56 148 0.0 0.0 0.00 0.00 0.00 82 1014.1
20260509003844 56 148 0.0 0.0 0.00 0.00 0.00 81 1014.1
20260509003405 57 148 0.0 0.0 0.00 0.00 0.00 80 1014.0
20260509002826 57 148 0.0 0.0 0.00 0.00 0.00 79 1014.0
20260509002327 58 148 0.0 0.0 0.00 0.00 0.00 78 1014.0
20260509001829 58 148 0.0 0.0 0.00 0.00 0.00 78 1013.7
20260509001400 58 148 0.0 0.0 0.00 0.00 0.00 77 1013.7
20260509000840 58 148 0.0 0.9 0.00 0.00 0.00 77 1013.7
20260509000340 58 148 0.0 0.9 0.00 0.00 0.00 76 1013.7
20260508235903 58 148 0.0 0.9 0.00 0.00 0.00 76 1013.7
20260508235343 58 148 0.0 0.9 0.00 0.00 0.00 76 1013.7
20260508234843 58 148 0.0 5.2 0.00 0.00 0.00 75 1013.6
20260508234348 59 148 0.0 5.2 0.00 0.00 0.00 74 1013.6
20260508233827 59 94 0.0 0.0 0.00 0.00 0.00 74 1013.6
20260508233327 59 94 0.0 0.0 0.00 0.00 0.00 74 1013.6
20260508232838 59 101 0.0 0.0 0.00 0.00 0.00 74 1013.6
20260508232324 59 22 0.0 0.0 0.00 0.00 0.00 74 1013.6
20260508231846 59 111 0.0 0.0 0.00 0.00 0.00 73 1013.6
20260508231339 59 72 0.0 0.0 0.00 0.00 0.00 73 1013.6
20260508230840 59 109 0.0 0.0 0.00 0.00 0.00 73 1013.6
20260508230342 60 109 0.0 0.0 0.00 0.00 0.00 72 1013.5
20260508225829 60 113 0.0 4.3 0.00 0.00 0.00 72 1013.5
20260508225351 60 329 0.9 5.2 0.00 0.00 0.00 71 1013.5
20260508224829 60 236 0.9 5.2 0.00 0.00 0.00 71 1013.6
20260508224353 60 113 1.7 2.6 0.00 0.00 0.00 71 1013.6
20260508223834 60 140 0.9 3.5 0.00 0.00 0.00 71 1013.6
20260508223353 60 321 0.9 3.5 0.00 0.00 0.00 70 1013.6
20260508222825 60 111 1.7 4.3 0.00 0.00 0.00 70 1013.6
20260508222327 61 355 0.9 4.3 0.00 0.00 0.00 70 1013.6
20260508221826 61 180 0.9 4.3 0.00 0.00 0.00 70 1013.5
20260508221338 61 144 0.0 4.3 0.00 0.00 0.00 69 1013.5
20260508220840 61 144 1.7 4.3 0.00 0.00 0.00 69 1013.5
20260508220339 61 123 0.9 3.5 0.00 0.00 0.00 69 1013.2
20260508215845 61 126 1.7 4.3 0.00 0.00 0.00 68 1013.2
20260508215346 61 175 1.7 5.2 0.00 0.00 0.00 68 1013.2
20260508214845 61 133 2.6 5.2 0.00 0.00 0.00 68 1013.6
20260508214358 62 105 1.7 6.1 0.00 0.00 0.00 67 1013.6
20260508213838 62 94 2.6 6.1 0.00 0.00 0.00 67 1013.6
20260508213325 62 190 0.0 4.3 0.00 0.00 0.00 67 1013.5
20260508212841 62 128 0.0 5.2 0.00 0.00 0.00 67 1013.5
20260508212346 62 229 1.7 5.2 0.00 0.00 0.00 67 1013.5
20260508211845 62 200 1.7 7.0 0.00 0.00 0.00 66 1013.3
20260508211331 62 304 0.9 7.0 0.00 0.00 0.00 65 1013.3
20260508210834 62 180 0.9 7.0 0.00 0.00 0.00 65 1013.3
20260508210333 62 153 0.9 6.1 0.00 0.00 0.00 65 1013.2
20260508205844 63 150 3.5 7.0 0.00 0.00 0.00 64 1013.2
20260508205345 63 189 2.6 7.0 0.00 0.00 0.00 64 1013.2
20260508204824 63 91 0.9 6.1 0.00 0.00 0.00 64 1013.1
20260508204340 63 77 1.7 5.2 0.00 0.00 0.00 63 1013.1
20260508203844 63 138 0.0 4.3 0.00 0.00 0.00 63 1013.1
20260508203344 63 142 1.7 8.7 0.00 0.00 0.00 63 1013.4
20260508202836 64 184 1.7 8.7 0.00 0.00 0.00 62 1013.4
20260508202343 64 79 2.6 7.0 0.00 0.00 0.00 61 1013.4
20260508201827 64 112 3.5 8.7 0.00 0.00 0.00 60 1013.4
20260508201333 64 134 2.6 8.7 0.00 0.00 0.00 60 1013.4
20260508200835 65 210 2.6 5.2 0.00 0.00 0.00 59 1013.4
20260508200354 65 133 2.6 4.3 0.00 0.00 0.00 61 1013.5
20260508195837 65 41 0.9 4.3 0.00 0.00 0.00 62 1013.5
20260508195339 65 166 1.7 5.2 0.00 0.00 0.00 60 1013.5
20260508194839 65 196 1.7 5.2 0.00 0.00 0.00 60 1013.8
20260508194326 65 217 1.7 5.2 0.00 0.00 0.00 59 1013.8
20260508193829 65 153 1.7 5.2 0.00 0.00 0.00 60 1013.8
20260508193332 65 139 2.6 5.2 0.00 0.00 0.00 59 1014.1
20260508192842 65 153 1.7 4.3 0.00 0.00 0.00 58 1014.1
20260508192404 65 180 1.7 7.0 0.00 0.00 0.00 59 1014.1
20260508191841 64 109 2.6 7.0 0.00 0.00 0.00 58 1014.2
20260508191327 65 205 3.5 5.2 0.00 0.00 0.00 57 1014.2
20260508190830 66 157 2.6 5.2 0.00 0.00 0.00 57 1014.2
20260508190328 65 296 2.6 5.2 0.00 0.00 0.00 58 1014.5
20260508185840 65 182 1.7 5.2 0.00 0.00 0.00 57 1014.5
20260508185342 65 130 1.7 7.8 0.00 0.00 0.00 57 1014.5
20260508184840 65 97 1.7 6.1 0.00 0.00 0.00 59 1014.7
20260508184328 65 175 3.5 6.1 0.00 0.00 0.00 57 1014.7
20260508183830 65 260 3.5 6.1 0.00 0.00 0.00 57 1014.7
20260508183328 64 147 0.9 6.1 0.00 0.00 0.00 60 1014.9
20260508182839 64 175 1.7 7.0 0.00 0.00 0.00 58 1014.9
20260508182340 65 109 3.5 7.0 0.00 0.00 0.00 56 1014.9
20260508181842 65 271 1.7 5.2 0.00 0.00 0.00 57 1015.0
20260508181329 65 238 2.6 5.2 0.00 0.00 0.00 56 1015.0
20260508180830 64 259 2.6 5.2 0.00 0.00 0.00 57 1015.0
20260508180329 64 308 2.6 7.0 0.00 0.00 0.00 58 1015.1
20260508175840 64 164 4.3 7.0 0.00 0.00 0.00 57 1015.1
20260508175346 64 139 3.5 5.2 0.00 0.00 0.00 56 1015.1
20260508174845 64 128 2.6 5.2 0.00 0.00 0.00 59 1015.3
20260508174330 64 151 1.7 5.2 0.00 0.00 0.00 58 1015.3
20260508173831 64 174 0.9 4.3 0.00 0.00 0.00 59 1015.3
20260508173330 63 149 2.6 6.1 0.00 0.00 0.00 59 1015.5
20260508172826 63 216 3.5 6.1 0.00 0.00 0.00 59 1015.5
20260508172331 63 177 2.6 5.2 0.00 0.00 0.00 58 1015.5
20260508171850 62 106 2.6 7.8 0.00 0.00 0.00 58 1015.7
20260508171341 62 177 1.7 7.8 0.00 0.00 0.00 60 1015.7
20260508170841 62 161 1.7 6.1 0.00 0.00 0.00 60 1015.7
20260508170341 62 167 2.6 6.1 0.00 0.00 0.00 62 1016.0
20260508165826 61 191 1.7 5.2 0.00 0.00 0.00 61 1016.0
20260508165329 62 155 0.9 4.3 0.00 0.00 0.00 61 1016.0
20260508164828 61 84 1.7 5.2 0.00 0.00 0.00 61 1016.4
20260508164344 62 209 1.7 5.2 0.00 0.00 0.00 57 1016.4
20260508163828 63 90 1.7 5.2 0.00 0.00 0.00 58 1016.4
20260508163326 63 117 1.7 6.1 0.00 0.00 0.00 59 1016.4
20260508162840 62 332 1.7 6.1 0.00 0.00 0.00 58 1016.4
20260508162341 62 115 1.7 5.2 0.00 0.00 0.00 61 1016.4
20260508161840 62 169 2.6 4.3 0.00 0.00 0.00 62 1016.4
20260508161346 61 329 1.7 5.2 0.00 0.00 0.00 60 1016.4
20260508160827 61 208 2.6 6.1 0.00 0.00 0.00 61 1016.4
20260508160329 61 67 1.7 4.3 0.00 0.00 0.00 65 1016.6
20260508155832 61 136 2.6 4.3 0.00 0.00 0.00 62 1016.6
20260508155333 61 207 1.7 4.3 0.00 0.00 0.00 61 1016.6
20260508154832 61 138 1.7 6.1 0.00 0.00 0.00 61 1016.9
20260508154326 61 176 2.6 6.1 0.00 0.00 0.00 63 1016.9
20260508153828 60 76 0.9 5.2 0.00 0.00 0.00 63 1016.9
20260508153330 60 169 1.7 5.2 0.00 0.00 0.00 61 1016.9
20260508152903 61 209 2.6 5.2 0.00 0.00 0.00 61 1016.9
20260508152404 62 146 2.6 5.2 0.00 0.00 0.00 63 1016.9
20260508151903 61 126 0.0 4.3 0.00 0.00 0.00 62 1016.9
20260508151326 61 118 0.0 4.3 0.00 0.00 0.00 64 1016.9
20260508150847 60 157 0.0 0.0 0.00 0.00 0.00 65 1016.9
20260508150327 60 181 0.0 3.5 0.00 0.00 0.00 65 1016.9
20260508145838 59 69 0.9 5.2 0.00 0.00 0.00 63 1016.9
20260508145340 59 65 1.7 5.2 0.00 0.00 0.00 62 1016.9
20260508144902 59 172 0.0 0.0 0.00 0.00 0.00 62 1016.9
20260508144345 59 184 0.0 0.0 0.00 0.00 0.00 61 1016.9
20260508143848 59 263 0.0 0.0 0.00 0.00 0.00 61 1016.9
20260508143345 59 234 0.0 0.0 0.00 0.00 0.00 63 1017.0
20260508142857 59 333 0.0 0.0 0.00 0.00 0.00 62 1017.0
20260508142341 58 76 0.0 0.0 0.00 0.00 0.00 65 1017.0
20260508141840 57 76 0.0 0.0 0.00 0.00 0.00 65 1017.2
20260508141328 57 122 0.0 0.0 0.00 0.00 0.00 66 1017.2
20260508140828 56 250 0.0 0.0 0.00 0.00 0.00 70 1017.2
20260508140332 56 250 0.0 0.0 0.00 0.01 0.00 74 1017.4
20260508135902 55 250 0.0 0.0 0.00 0.01 0.00 71 1017.4
20260508135346 55 250 0.0 0.0 0.00 0.01 0.00 73 1017.4
20260508134826 54 240 0.0 0.0 0.00 0.01 0.00 78 1017.5
20260508134330 54 240 0.0 0.0 0.00 0.01 0.00 76 1017.5
20260508133850 53 240 0.0 0.0 0.00 0.01 0.00 79 1017.5
20260508133348 52 240 0.0 0.0 0.00 0.01 0.00 80 1017.4
20260508132842 52 240 0.0 0.0 0.00 0.01 0.00 85 1017.4
20260508132345 51 240 0.0 0.0 0.00 0.01 0.00 88 1017.4
20260508131904 50 240 0.0 0.0 0.00 0.01 0.00 92 1017.1
20260508131330 49 240 0.0 0.0 0.00 0.01 0.00 93 1017.1
20260508130851 49 240 0.0 0.0 0.00 0.01 0.00 93 1017.1
20260508130329 48 240 0.0 0.0 0.00 0.03 0.00 94 1017.0
20260508125845 48 240 0.0 0.0 0.00 0.03 0.00 94 1017.0
20260508125327 48 241 0.0 0.0 0.00 0.03 0.00 95 1017.0
20260508124826 47 257 0.0 0.0 0.00 0.03 0.00 96 1017.0
20260508124342 47 257 0.0 0.0 0.00 0.03 0.00 97 1017.0
20260508123904 46 257 0.0 0.0 0.00 0.03 0.00 97 1017.0
20260508123342 46 257 0.0 0.0 0.00 0.03 0.00 98 1016.9
20260508122829 45 257 0.0 0.0 0.00 0.03 0.00 97 1016.9
20260508122330 45 257 0.0 0.0 0.00 0.03 0.00 98 1016.9
20260508121829 45 257 0.0 0.0 0.00 0.03 0.00 98 1016.7
20260508121341 44 257 0.0 0.0 0.00 0.03 0.00 97 1016.7
20260508120845 44 257 0.0 0.0 0.00 0.03 0.00 97 1016.7
20260508120326 44 257 0.0 0.0 0.00 0.09 0.00 97 1016.6
20260508115851 44 257 0.0 0.0 0.00 0.09 0.00 97 1016.6
20260508115332 43 257 0.0 0.0 0.00 0.09 0.00 97 1016.6
20260508114831 43 257 0.0 0.0 0.00 0.09 0.00 96 1016.4
20260508114343 43 257 0.0 0.0 0.00 0.09 0.00 97 1016.4
20260508113845 43 257 0.0 0.0 0.00 0.09 0.00 96 1016.4
20260508113344 43 257 0.0 0.0 0.00 0.09 0.00 96 1016.3
20260508112848 43 257 0.0 0.0 0.00 0.09 0.00 96 1016.3
20260508112328 43 257 0.0 0.0 0.00 0.09 0.00 96 1016.3
20260508111827 43 257 0.0 0.0 0.00 0.09 0.00 96 1015.9
20260508111339 43 257 0.0 0.0 0.00 0.09 0.00 96 1015.9
20260508110840 43 257 0.0 0.0 0.00 0.09 0.00 96 1015.9
20260508110340 43 257 0.0 0.0 0.00 0.15 0.00 95 1015.8
20260508105827 43 257 0.0 0.0 0.00 0.15 0.00 95 1015.8
20260508105329 43 257 0.0 0.0 0.00 0.15 0.00 95 1015.8
20260508104849 43 257 0.0 0.0 0.00 0.15 0.00 95 1015.5
20260508104339 43 257 0.0 0.0 0.00 0.15 0.00 95 1015.5
20260508103844 43 257 0.0 0.0 0.00 0.15 0.00 95 1015.5
20260508103402 43 257 0.0 0.0 0.00 0.15 0.00 95 1015.2
20260508102827 43 257 0.0 0.0 0.00 0.15 0.00 95 1015.2
20260508102331 43 257 0.0 0.0 0.00 0.15 0.00 94 1015.2
20260508101831 43 257 0.0 0.0 0.00 0.15 0.00 94 1015.2
20260508101405 43 257 0.0 0.0 0.00 0.15 0.00 94 1015.2
20260508100845 44 257 0.0 0.0 0.00 0.15 0.00 93 1015.2
20260508100324 44 257 0.0 0.0 0.00 0.15 0.00 93 1014.8
20260508095841 44 257 0.0 0.0 0.00 0.15 0.00 93 1014.8
20260508095342 44 257 0.0 0.0 0.00 0.15 0.00 93 1014.8
20260508094843 44 257 0.0 0.0 0.00 0.15 0.00 93 1014.7
20260508094328 44 257 0.0 0.0 0.00 0.15 0.00 93 1014.7
20260508093829 44 257 0.0 0.0 0.00 0.15 0.00 93 1014.7
20260508093327 44 257 0.0 0.0 0.00 0.15 0.00 93 1014.6
20260508092901 44 257 0.0 0.0 0.00 0.15 0.00 93 1014.6
20260508092340 45 257 0.0 0.0 0.00 0.15 0.00 92 1014.6
20260508091840 45 257 0.0 0.0 0.00 0.15 0.00 93 1014.7
20260508091347 45 257 0.0 0.0 0.00 0.15 0.00 94 1014.7
20260508090828 45 257 0.0 0.0 0.00 0.15 0.00 94 1014.7
20260508090327 45 257 0.0 0.0 0.00 0.15 0.00 94 1014.7
20260508085832 45 257 0.0 0.0 0.00 0.15 0.00 93 1014.7
20260508085333 45 257 0.0 0.0 0.00 0.15 0.00 93 1014.7
20260508084851 45 257 0.0 0.0 0.00 0.15 0.00 94 1014.5
20260508084342 45 257 0.0 0.0 0.00 0.15 0.00 95 1014.5
20260508083904 45 257 0.0 0.0 0.00 0.15 0.00 95 1014.5
20260508083342 44 257 0.0 0.0 0.00 0.15 0.00 95 1014.5
20260508082833 45 257 0.0 0.0 0.00 0.15 0.00 95 1014.5
20260508082333 45 257 0.0 0.0 0.00 0.15 0.00 95 1014.5
20260508081830 45 257 0.0 0.0 0.00 0.15 0.00 95 1014.4
20260508081344 45 257 0.0 0.0 0.00 0.15 0.00 95 1014.4
20260508080845 45 257 0.0 0.0 0.00 0.15 0.00 95 1014.4
20260508080324 45 257 0.0 0.0 0.00 0.17 0.00 94 1014.1
20260508075833 45 257 0.0 0.0 0.00 0.17 0.00 94 1014.1
20260508075335 45 257 0.0 0.0 0.00 0.17 0.00 94 1014.1
20260508074833 45 257 0.0 0.0 0.00 0.17 0.00 94 1014.2
20260508074337 45 257 0.0 0.0 0.00 0.17 0.00 94 1014.2
20260508073843 45 257 0.0 0.0 0.00 0.17 0.00 93 1014.2
20260508073341 46 257 0.0 0.0 0.00 0.17 0.00 94 1014.1
20260508072842 46 257 0.0 0.0 0.00 0.17 0.00 94 1014.1
20260508072326 46 257 0.0 0.0 0.00 0.17 0.00 93 1014.1
20260508071827 46 257 0.0 0.0 0.00 0.17 0.00 93 1014.1
20260508071402 46 257 0.0 0.0 0.00 0.17 0.00 93 1014.1
20260508070841 47 257 0.0 0.0 0.00 0.17 0.00 92 1014.1
20260508070339 47 257 0.0 0.0 0.00 0.18 0.00 92 1014.1
20260508065828 47 257 0.0 0.0 0.00 0.18 0.00 92 1014.1
20260508065329 47 257 0.0 0.0 0.00 0.18 0.00 92 1014.1
20260508064831 47 257 0.0 0.0 0.00 0.18 0.00 92 1013.7
20260508064342 47 257 0.0 0.0 0.00 0.18 0.00 91 1013.7
20260508063903 47 257 0.0 0.0 0.00 0.18 0.00 91 1013.7
20260508063401 47 257 0.0 0.0 0.00 0.18 0.00 91 1013.8
20260508062827 47 257 0.0 0.0 0.00 0.18 0.00 91 1013.8
20260508062327 47 257 0.0 0.0 0.00 0.18 0.00 91 1013.8
20260508061829 47 252 0.0 0.0 0.00 0.18 0.00 92 1013.8
20260508061336 48 252 0.0 0.0 0.00 0.18 0.00 91 1013.8
20260508060841 47 252 0.0 0.0 0.00 0.18 0.00 90 1013.8
20260508060341 47 252 0.0 0.0 0.00 0.28 0.00 91 1013.7
20260508055830 47 244 0.0 0.0 0.00 0.28 0.00 92 1013.7
20260508055351 47 244 0.0 0.0 0.00 0.28 0.00 91 1013.7
20260508054828 47 244 0.0 0.0 0.00 0.28 0.00 91 1013.9
20260508054340 47 244 0.0 0.0 0.00 0.28 0.00 91 1013.9
20260508053842 47 244 0.0 0.0 0.00 0.28 0.00 90 1013.9
20260508053342 47 244 0.0 0.0 0.00 0.28 0.00 90 1013.9
20260508052826 47 244 0.0 0.0 0.00 0.28 0.00 90 1013.9
20260508052348 47 244 0.0 0.0 0.00 0.28 0.00 90 1013.9
20260508051831 47 244 0.0 0.0 0.00 0.28 0.00 89 1014.0
20260508051354 47 244 0.0 0.0 0.00 0.28 0.00 90 1014.0
20260508050842 47 244 0.0 0.0 0.00 0.28 0.00 90 1014.0
20260508050341 47 244 0.0 0.0 0.00 0.41 0.00 90 1013.6
20260508045827 47 244 0.0 0.0 0.00 0.41 0.00 90 1013.6
20260508045327 47 244 0.0 0.0 0.00 0.41 0.00 89 1013.6
20260508044827 47 244 0.0 0.0 0.00 0.41 0.00 89 1013.7
20260508044340 47 244 0.0 0.0 0.00 0.41 0.00 89 1013.7
20260508043902 47 244 0.0 0.0 0.00 0.41 0.00 88 1013.7
20260508043341 48 244 0.0 0.0 0.00 0.41 0.00 88 1013.7
20260508042847 48 244 0.0 0.0 0.00 0.41 0.00 88 1013.7
20260508042328 48 244 0.0 0.0 0.00 0.41 0.00 87 1013.7
20260508041848 48 244 0.0 0.0 0.00 0.41 0.00 87 1013.6
20260508041334 48 244 0.0 0.0 0.00 0.41 0.00 88 1013.6
20260508040840 48 244 0.0 0.0 0.00 0.41 0.00 87 1013.6
20260508040340 48 244 0.0 0.0 0.00 0.43 0.41 88 1013.6
20260508035844 48 244 0.0 0.0 0.00 0.43 0.41 87 1013.6
20260508035346 48 244 0.0 0.0 0.00 0.43 0.41 88 1013.6
20260508034906 48 244 0.0 0.0 0.00 0.43 0.41 88 1013.6
20260508034328 48 244 0.0 0.0 0.00 0.43 0.41 88 1013.6
20260508033829 49 244 0.0 0.0 0.00 0.43 0.41 88 1013.6
20260508033329 49 244 0.0 0.0 0.00 0.43 0.41 87 1013.8
20260508032902 49 244 0.0 0.0 0.00 0.43 0.41 88 1013.8
20260508032329 49 244 0.0 0.0 0.00 0.43 0.41 86 1013.8
20260508031829 49 244 0.0 0.0 0.00 0.43 0.41 87 1013.6
20260508031342 49 244 0.0 0.0 0.00 0.43 0.41 89 1013.6
20260508030906 49 244 0.0 0.0 0.00 0.43 0.41 88 1013.6
20260508030344 49 244 0.0 0.0 0.00 0.44 0.41 89 1013.5
20260508025829 49 244 0.0 0.0 0.00 0.44 0.41 90 1013.5
20260508025331 49 244 0.0 0.0 0.00 0.44 0.41 89 1013.5
20260508024830 49 244 0.0 0.0 0.00 0.44 0.41 90 1013.4